Weather History for Asheville, NC

Change the Weather History Date:

Thursday, May 22, 2008

  Actual Average Record
Temperature  
Mean Temperature 60 °F 65 °F  
Max Temperature 77 °F 76 °F 93 °F (1941)
Min Temperature 42 °F 53 °F 37 °F (2002)
Degree Days  
Heating Degree Days 5 3  
Month to date heating degree days 92 93  
Since 1 July heating degree days 3942 4165  
Cooling Degree Days 0 2  
Month to date cooling degree days 13 28  
Year to date cooling degree days 13 36  
Growing Degree Days 9 (Base 50)    
Moisture  
Dew Point 40 °F    
Average Humidity 57    
Maximum Humidity 93    
Minimum Humidity 21    
Precipitation  
Precipitation 0.00 in 0.12 in 2.15 in (1901)
Month to date precipitation 0.73 2.55  
Year to date precipitation 14.43 17.14  
Snow  
Snow 0.00 in 0.00 in 0.00 in ()
Month to date snowfall 0.0 0.0  
Since 1 July snowfall 3.8 9.9  
Snow Depth -    
Sea Level Pressure  
Sea Level Pressure 29.84 in    
Wind  
Wind Speed 7 mph (NNW)    
Max Wind Speed 16 mph    
Max Gust Speed 20 mph    
Visibility 10 miles    
Events      
T = Trace of Precipitation, MM = Missing Value Source: NWS Daily Summary

Daily Weather History Graph

Daily Weather History Graph

Search for Another Location

Airport:

Trip Planner

Search our weather history database for the weather conditions in past years. The results will help you decide how hot, cold, wet, or windy it might be!

Date:

Astronomy

May. 22, 2008 Rise Set
Actual Time 6:20 AM EDT 8:33 PM EDT
Civil Twilight 5:51 AM EDT 9:02 PM EDT
Nautical Twilight 5:16 AM EDT 9:37 PM EDT
Astronomical Twilight 4:38 AM EDT 10:16 PM EDT
Moon 11:16 PM EDT (5/22) 7:51 AM EDT (5/22)
Length of Visible Light 15h 10m
Length of Day
14h 12m
Waning Gibbous, 94% of the Moon is Illuminated
May 22
Waning Gibbous
May 27
Last Quarter
Jun 3
New
Jun 10
First Quarter
Jun 18
Full

Hourly Weather History & Observations

Time (EDT) Temp. Windchill Dew Point Humidity Pressure Visibility Wind Dir Wind Speed Gust Speed Precip Events Conditions
12:54 AM 48.9 °F - 39.9 °F 71% 29.76 in 10.0 mi Calm Calm - N/A   Clear
1:54 AM 46.9 °F - 39.9 °F 77% 29.77 in 10.0 mi Calm Calm - N/A   Clear
2:54 AM 44.1 °F 41.5 °F 42.1 °F 93% 29.75 in 10.0 mi NW 4.6 mph - N/A   Clear
3:54 AM 44.1 °F - 41.0 °F 89% 29.78 in 10.0 mi Calm Calm - N/A   Clear
4:54 AM 43.0 °F 38.8 °F 39.9 °F 89% 29.79 in 10.0 mi NNW 6.9 mph - N/A   Clear
5:54 AM 44.1 °F 39.5 °F 41.0 °F 89% 29.80 in 10.0 mi NNW 8.1 mph - N/A   Clear
6:54 AM 44.1 °F 39.5 °F 41.0 °F 89% 29.83 in 10.0 mi NNW 8.1 mph - N/A   Clear
8:54 AM 57.9 °F - 43.0 °F 58% 29.85 in 10.0 mi NNW 5.8 mph - N/A   Clear
9:54 AM 63.0 °F - 43.0 °F 48% 29.85 in 10.0 mi North 9.2 mph - N/A   Clear
10:23 AM 64.4 °F - 41.0 °F 42% 29.90 in 10.0 mi NNW 13.8 mph 19.6 mph N/A   Clear
10:54 AM 66.0 °F - 39.9 °F 38% 29.85 in 10.0 mi North 11.5 mph - N/A   Clear
11:54 AM 68.0 °F - 41.0 °F 37% 29.85 in 10.0 mi Variable 4.6 mph - N/A   Clear
12:54 PM 70.0 °F - 39.9 °F 33% 29.85 in 10.0 mi North 12.7 mph 18.4 mph N/A   Clear
1:54 PM 73.0 °F - 41.0 °F 31% 29.84 in 10.0 mi Variable 4.6 mph - N/A   Clear
2:54 PM 75.0 °F - 37.9 °F 26% 29.84 in 10.0 mi Variable 6.9 mph - N/A   Clear
3:54 PM 75.9 °F - 35.1 °F 23% 29.84 in 10.0 mi NNW 5.8 mph 16.1 mph N/A   Clear
4:54 PM 75.9 °F - 34.0 °F 22% 29.84 in 10.0 mi NNW 11.5 mph - N/A   Clear
5:54 PM 75.0 °F - 36.0 °F 24% 29.85 in 10.0 mi NNW 9.2 mph - N/A   Clear
6:54 PM 73.0 °F - 36.0 °F 26% 29.85 in 10.0 mi NNW 12.7 mph - N/A   Clear
7:54 PM 69.1 °F - 37.9 °F 32% 29.86 in 10.0 mi NNW 9.2 mph - N/A   Clear
8:54 PM 66.9 °F - 39.0 °F 36% 29.88 in 10.0 mi NNW 5.8 mph - N/A   Clear
9:54 PM 64.9 °F - 39.9 °F 40% 29.89 in 10.0 mi North 6.9 mph - N/A   Clear
10:54 PM 60.1 °F - 43.0 °F 53% 29.92 in 10.0 mi NW 4.6 mph - N/A   Clear
11:54 PM 57.0 °F - 45.0 °F 64% 29.93 in 10.0 mi Calm Calm - N/A   Clear